Year,Month,Day,Hour,Minute,Value (Times are PST for temperature in C)
2015,05,27,00,00,14.40
2015,05,27,00,01,14.40
2015,05,27,00,02,14.40
2015,05,27,00,03,14.30
2015,05,27,00,04,14.30
2015,05,27,00,05,14.20
2015,05,27,00,06,14.20
2015,05,27,00,07,14.20
2015,05,27,00,08,14.10
2015,05,27,00,09,14.10
2015,05,27,00,10,14.00
2015,05,27,00,11,14.00
2015,05,27,00,12,13.90
2015,05,27,00,13,13.90
2015,05,27,00,14,13.80
2015,05,27,00,15,13.80
2015,05,27,00,16,13.80
2015,05,27,00,17,13.80
2015,05,27,00,18,13.80
2015,05,27,00,19,13.70
2015,05,27,00,20,13.70
2015,05,27,00,21,13.70
2015,05,27,00,22,13.70
2015,05,27,00,23,13.70
2015,05,27,00,24,13.60
2015,05,27,00,25,13.60
2015,05,27,00,26,13.60
2015,05,27,00,27,13.60
2015,05,27,00,28,13.60
2015,05,27,00,29,13.60
2015,05,27,00,30,13.50
2015,05,27,00,31,13.50
2015,05,27,00,32,13.50
2015,05,27,00,33,13.50
2015,05,27,00,34,13.50
2015,05,27,00,35,13.50
2015,05,27,00,36,13.40
2015,05,27,00,37,13.40
2015,05,27,00,38,13.40
2015,05,27,00,39,13.40
2015,05,27,00,40,13.40
2015,05,27,00,41,13.40
2015,05,27,00,42,13.40
2015,05,27,00,43,13.40
2015,05,27,00,44,13.40
2015,05,27,00,45,13.40
2015,05,27,00,46,13.40
2015,05,27,00,47,13.30
2015,05,27,00,48,13.40
2015,05,27,00,49,13.30
2015,05,27,00,50,13.30
2015,05,27,00,51,13.30
2015,05,27,00,52,13.30
2015,05,27,00,53,13.30
2015,05,27,00,54,13.30
2015,05,27,00,55,13.30
2015,05,27,00,56,13.30
2015,05,27,00,57,13.30
2015,05,27,00,58,13.30
2015,05,27,00,59,13.30
2015,05,27,01,00,13.30
2015,05,27,01,01,13.30
2015,05,27,01,02,13.30
2015,05,27,01,03,13.30
2015,05,27,01,04,13.30
2015,05,27,01,05,13.30
2015,05,27,01,06,13.30
2015,05,27,01,07,13.30
2015,05,27,01,08,13.30
2015,05,27,01,09,13.30
2015,05,27,01,10,13.30
2015,05,27,01,11,13.30
2015,05,27,01,12,13.20
2015,05,27,01,13,13.20
2015,05,27,01,14,13.20
2015,05,27,01,15,13.20
2015,05,27,01,16,13.20
2015,05,27,01,17,13.20
2015,05,27,01,18,13.20
2015,05,27,01,19,13.20
2015,05,27,01,20,13.20
2015,05,27,01,21,13.20
2015,05,27,01,22,13.10
2015,05,27,01,23,13.10
2015,05,27,01,24,13.10
2015,05,27,01,25,13.10
2015,05,27,01,26,13.10
2015,05,27,01,27,13.10
2015,05,27,01,28,13.10
2015,05,27,01,29,13.00
2015,05,27,01,30,13.00
2015,05,27,01,31,13.00
2015,05,27,01,32,13.00
2015,05,27,01,33,12.90
2015,05,27,01,34,12.90
2015,05,27,01,35,12.90
2015,05,27,01,36,12.80
2015,05,27,01,37,12.80
2015,05,27,01,38,12.80
2015,05,27,01,39,12.80
2015,05,27,01,40,12.80
2015,05,27,01,41,12.80
2015,05,27,01,42,12.70
2015,05,27,01,43,12.70
2015,05,27,01,44,12.70
2015,05,27,01,45,12.70
2015,05,27,01,46,12.70
2015,05,27,01,47,12.60
2015,05,27,01,48,12.60
2015,05,27,01,49,12.60
2015,05,27,01,50,12.50
2015,05,27,01,51,12.50
2015,05,27,01,52,12.50
2015,05,27,01,53,12.40
2015,05,27,01,54,12.40
2015,05,27,01,55,12.40
2015,05,27,01,56,12.40
2015,05,27,01,57,12.40
2015,05,27,01,58,12.40
2015,05,27,01,59,12.40
2015,05,27,02,00,12.40
2015,05,27,02,01,12.30
2015,05,27,02,02,12.30
2015,05,27,02,03,12.30
2015,05,27,02,04,12.30
2015,05,27,02,05,12.30
2015,05,27,02,06,12.20
2015,05,27,02,07,12.20
2015,05,27,02,08,12.20
2015,05,27,02,09,12.20
2015,05,27,02,10,12.20
2015,05,27,02,11,12.20
2015,05,27,02,12,12.10
2015,05,27,02,13,12.10
2015,05,27,02,14,12.10
2015,05,27,02,15,12.10
2015,05,27,02,16,12.10
2015,05,27,02,17,12.00
2015,05,27,02,18,12.00
2015,05,27,02,19,12.00
2015,05,27,02,20,11.90
2015,05,27,02,21,11.90
2015,05,27,02,22,11.90
2015,05,27,02,23,11.90
2015,05,27,02,24,11.90
2015,05,27,02,25,11.90
2015,05,27,02,26,11.90
2015,05,27,02,27,11.90
2015,05,27,02,28,11.80
2015,05,27,02,29,11.80
2015,05,27,02,30,11.80
2015,05,27,02,31,11.80
2015,05,27,02,32,11.80
2015,05,27,02,33,11.80
2015,05,27,02,34,11.80
2015,05,27,02,35,11.80
2015,05,27,02,36,11.80
2015,05,27,02,37,11.80
2015,05,27,02,38,11.80
2015,05,27,02,39,11.80
2015,05,27,02,40,11.80
2015,05,27,02,41,11.80
2015,05,27,02,42,11.80
2015,05,27,02,43,11.80
2015,05,27,02,44,11.80
2015,05,27,02,45,11.80
2015,05,27,02,46,11.80
2015,05,27,02,47,11.80
2015,05,27,02,48,11.80
2015,05,27,02,49,11.80
2015,05,27,02,50,11.80
2015,05,27,02,51,11.80
2015,05,27,02,52,11.90
2015,05,27,02,53,11.90
2015,05,27,02,54,11.90
2015,05,27,02,55,11.90
2015,05,27,02,56,11.90
2015,05,27,02,57,11.90
2015,05,27,02,58,11.90
2015,05,27,02,59,11.90
2015,05,27,03,00,11.90
2015,05,27,03,01,11.90
2015,05,27,03,02,11.90
2015,05,27,03,06,12.00
2015,05,27,03,07,12.00
2015,05,27,03,08,12.00
2015,05,27,03,09,12.00
2015,05,27,03,10,12.00
2015,05,27,03,11,12.00
2015,05,27,03,12,12.00
2015,05,27,03,13,12.00
2015,05,27,03,14,12.10
2015,05,27,03,15,12.10
2015,05,27,03,16,12.10
2015,05,27,03,17,12.10
2015,05,27,03,18,12.10
2015,05,27,03,19,12.10
2015,05,27,03,20,12.10
2015,05,27,03,21,12.10
2015,05,27,03,22,12.10
2015,05,27,03,23,12.20
2015,05,27,03,24,12.20
2015,05,27,03,25,12.20
2015,05,27,03,26,12.20
2015,05,27,03,27,12.20
2015,05,27,03,28,12.20
2015,05,27,03,29,12.20
2015,05,27,03,30,12.20
2015,05,27,03,31,12.20
2015,05,27,03,32,12.20
2015,05,27,03,33,12.30
2015,05,27,03,34,12.30
2015,05,27,03,35,12.30
2015,05,27,03,36,12.30
2015,05,27,03,37,12.30
2015,05,27,03,38,12.30
2015,05,27,03,39,12.30
2015,05,27,03,40,12.30
2015,05,27,03,41,12.30
2015,05,27,03,42,12.30
2015,05,27,03,43,12.30
2015,05,27,03,44,12.30
2015,05,27,03,45,12.30
2015,05,27,03,46,12.30
2015,05,27,03,47,12.30
2015,05,27,03,48,12.30
2015,05,27,03,49,12.30
2015,05,27,03,50,12.30
2015,05,27,03,51,12.30
2015,05,27,03,52,12.30
2015,05,27,03,53,12.30
2015,05,27,03,54,12.30
2015,05,27,03,55,12.30
2015,05,27,03,56,12.30
2015,05,27,03,57,12.30
2015,05,27,03,58,12.30
2015,05,27,03,59,12.30
2015,05,27,04,00,12.30
2015,05,27,04,01,12.30
2015,05,27,04,02,12.30
2015,05,27,04,03,12.30
2015,05,27,04,04,12.30
2015,05,27,04,05,12.30
2015,05,27,04,06,12.30
2015,05,27,04,07,12.30
2015,05,27,04,08,12.30
2015,05,27,04,09,12.30
2015,05,27,04,10,12.30
2015,05,27,04,11,12.30
2015,05,27,04,12,12.30
2015,05,27,04,13,12.30
2015,05,27,04,14,12.30
2015,05,27,04,15,12.30
2015,05,27,04,16,12.30
2015,05,27,04,17,12.30
2015,05,27,04,18,12.30
2015,05,27,04,19,12.30
2015,05,27,04,20,12.30
2015,05,27,04,21,12.30
2015,05,27,04,22,12.30
2015,05,27,04,23,12.30
2015,05,27,04,24,12.30
2015,05,27,04,25,12.30
2015,05,27,04,26,12.30
2015,05,27,04,27,12.30
2015,05,27,04,28,12.30
2015,05,27,04,29,12.30
2015,05,27,04,30,12.30
2015,05,27,04,31,12.30
2015,05,27,04,32,12.40
2015,05,27,04,33,12.40
2015,05,27,04,34,12.40
2015,05,27,04,35,12.40
2015,05,27,04,36,12.40
2015,05,27,04,37,12.40
2015,05,27,04,38,12.40
2015,05,27,04,39,12.40
2015,05,27,04,40,12.40
2015,05,27,04,41,12.40
2015,05,27,04,42,12.40
2015,05,27,04,43,12.40
2015,05,27,04,44,12.40
2015,05,27,04,45,12.40
2015,05,27,04,46,12.40
2015,05,27,04,47,12.40
2015,05,27,04,48,12.40
2015,05,27,04,49,12.40
2015,05,27,04,50,12.40
2015,05,27,04,51,12.40
2015,05,27,04,52,12.40
2015,05,27,04,53,12.40
2015,05,27,04,54,12.40
2015,05,27,04,55,12.40
2015,05,27,04,56,12.40
2015,05,27,04,57,12.40
2015,05,27,04,58,12.40
2015,05,27,04,59,12.40
2015,05,27,05,00,12.40
2015,05,27,05,01,12.40
2015,05,27,05,02,12.40
2015,05,27,05,03,12.40
2015,05,27,05,04,12.40
2015,05,27,05,05,12.40
2015,05,27,05,06,12.50
2015,05,27,05,07,12.50
2015,05,27,05,08,12.50
2015,05,27,05,09,12.40
2015,05,27,05,10,12.40
2015,05,27,05,11,12.40
2015,05,27,05,12,12.50
2015,05,27,05,13,12.40
2015,05,27,05,14,12.40
2015,05,27,05,15,12.40
2015,05,27,05,16,12.40
2015,05,27,05,17,12.40
2015,05,27,05,18,12.40
2015,05,27,05,19,12.40
2015,05,27,05,20,12.40
2015,05,27,05,21,12.40
2015,05,27,05,22,12.50
2015,05,27,05,23,12.50
2015,05,27,05,24,12.50
2015,05,27,05,25,12.50
2015,05,27,05,26,12.50
2015,05,27,05,27,12.50
2015,05,27,05,28,12.50
2015,05,27,05,29,12.50
2015,05,27,05,30,12.50
2015,05,27,05,31,12.50
2015,05,27,05,32,12.50
2015,05,27,05,33,12.50
2015,05,27,05,34,12.50
2015,05,27,05,35,12.50
2015,05,27,05,36,12.50
2015,05,27,05,37,12.50
2015,05,27,05,38,12.50
2015,05,27,05,39,12.50
2015,05,27,05,40,12.50
2015,05,27,05,41,12.60
2015,05,27,05,42,12.60
2015,05,27,05,43,12.60
2015,05,27,05,44,12.60
2015,05,27,05,45,12.60
2015,05,27,05,46,12.60
2015,05,27,05,47,12.60
2015,05,27,05,48,12.60
2015,05,27,05,49,12.60
2015,05,27,05,50,12.60
2015,05,27,05,51,12.60
2015,05,27,05,52,12.60
2015,05,27,05,53,12.60
2015,05,27,05,54,12.60
2015,05,27,05,55,12.60
2015,05,27,05,56,12.60
2015,05,27,05,57,12.60
2015,05,27,05,58,12.60
2015,05,27,05,59,12.60
2015,05,27,06,00,12.60
2015,05,27,06,01,12.60
2015,05,27,06,02,12.50
2015,05,27,06,03,12.50
2015,05,27,06,04,12.50
2015,05,27,06,05,12.50
2015,05,27,06,06,12.50
2015,05,27,06,07,12.50
2015,05,27,06,08,12.50
2015,05,27,06,09,12.50
2015,05,27,06,10,12.40
2015,05,27,06,11,12.40
2015,05,27,06,12,12.40
2015,05,27,06,13,12.40
2015,05,27,06,14,12.40
2015,05,27,06,15,12.40
2015,05,27,06,16,12.40
2015,05,27,06,17,12.40
2015,05,27,06,18,12.40
2015,05,27,06,19,12.40
2015,05,27,06,20,12.40
2015,05,27,06,21,12.30
2015,05,27,06,22,12.30
2015,05,27,06,23,12.30
2015,05,27,06,24,12.30
2015,05,27,06,25,12.30
2015,05,27,06,26,12.30
2015,05,27,06,27,12.30
2015,05,27,06,28,12.30
2015,05,27,06,29,12.30
2015,05,27,06,30,12.30
2015,05,27,06,31,12.30
2015,05,27,06,32,12.30
2015,05,27,06,33,12.30
2015,05,27,06,34,12.30
2015,05,27,06,35,12.30
2015,05,27,06,36,12.30
2015,05,27,06,37,12.30
2015,05,27,06,38,12.30
2015,05,27,06,39,12.30
2015,05,27,06,40,12.30
2015,05,27,06,41,12.30
2015,05,27,06,42,12.30
2015,05,27,06,43,12.30
2015,05,27,06,44,12.30
2015,05,27,06,45,12.30
2015,05,27,06,46,12.30
2015,05,27,06,47,12.30
2015,05,27,06,48,12.30
2015,05,27,06,49,12.30
2015,05,27,06,50,12.30
2015,05,27,06,51,12.30
2015,05,27,06,52,12.30
2015,05,27,06,53,12.30
2015,05,27,06,54,12.40
2015,05,27,06,55,12.40
2015,05,27,06,56,12.40
2015,05,27,06,57,12.40
2015,05,27,06,58,12.40
2015,05,27,06,59,12.40
2015,05,27,07,00,12.40
2015,05,27,07,01,12.50
2015,05,27,07,02,12.50
2015,05,27,07,03,12.50
2015,05,27,07,04,12.50
2015,05,27,07,05,12.50
2015,05,27,07,06,12.50
2015,05,27,07,07,12.60
2015,05,27,07,08,12.60
2015,05,27,07,09,12.60
2015,05,27,07,10,12.60
2015,05,27,07,11,12.60
2015,05,27,07,12,12.60
2015,05,27,07,13,12.60
2015,05,27,07,14,12.60
2015,05,27,07,15,12.60
2015,05,27,07,16,12.60
2015,05,27,07,17,12.60
2015,05,27,07,18,12.60
2015,05,27,07,19,12.50
2015,05,27,07,20,12.50
2015,05,27,07,21,12.50
2015,05,27,07,22,12.50
2015,05,27,07,23,12.50
2015,05,27,07,24,12.50
2015,05,27,07,25,12.50
2015,05,27,07,26,12.50
2015,05,27,07,27,12.50
2015,05,27,07,28,12.50
2015,05,27,07,29,12.50
2015,05,27,07,30,12.50
2015,05,27,07,31,12.50
2015,05,27,07,32,12.50
2015,05,27,07,33,12.50
2015,05,27,07,34,12.50
2015,05,27,07,35,12.50
2015,05,27,07,36,12.50
2015,05,27,07,37,12.50
2015,05,27,07,38,12.50
2015,05,27,07,39,12.50
2015,05,27,07,40,12.50
2015,05,27,07,41,12.50
2015,05,27,07,42,12.50
2015,05,27,07,43,12.50
2015,05,27,07,44,12.60
2015,05,27,07,45,12.60
2015,05,27,07,46,12.60
2015,05,27,07,47,12.60
2015,05,27,07,48,12.60
2015,05,27,07,49,12.60
2015,05,27,07,50,12.60
2015,05,27,07,51,12.60
2015,05,27,07,52,12.60
2015,05,27,07,53,12.60
2015,05,27,07,54,12.60
2015,05,27,07,55,12.60
2015,05,27,07,56,12.60
2015,05,27,07,57,12.60
2015,05,27,07,58,12.60
2015,05,27,07,59,12.60
2015,05,27,08,00,12.70
2015,05,27,08,01,12.70
2015,05,27,08,02,12.70
2015,05,27,08,03,12.70
2015,05,27,08,04,12.70
2015,05,27,08,05,12.70
2015,05,27,08,06,12.70
2015,05,27,08,07,12.70
2015,05,27,08,08,12.70
2015,05,27,08,09,12.70
2015,05,27,08,10,12.70
2015,05,27,08,11,12.80
2015,05,27,08,12,12.80
2015,05,27,08,13,12.80
2015,05,27,08,14,12.80
2015,05,27,08,15,12.80
2015,05,27,08,16,12.90
2015,05,27,08,17,12.90
2015,05,27,08,18,12.90
2015,05,27,08,19,12.90
2015,05,27,08,20,12.90
2015,05,27,08,21,12.90
2015,05,27,08,22,12.90
2015,05,27,08,23,13.00
2015,05,27,08,24,13.00
2015,05,27,08,25,13.10
2015,05,27,08,26,13.10
2015,05,27,08,27,13.10
2015,05,27,08,28,13.10
2015,05,27,08,29,13.10
2015,05,27,08,30,13.20
2015,05,27,08,31,13.20
2015,05,27,08,32,13.20
2015,05,27,08,33,13.20
2015,05,27,08,34,13.20
2015,05,27,08,35,13.20
2015,05,27,08,36,13.30
2015,05,27,08,37,13.30
2015,05,27,08,38,13.30
2015,05,27,08,39,13.30
2015,05,27,08,40,13.40
2015,05,27,08,41,13.40
2015,05,27,08,42,13.40
2015,05,27,08,43,13.40
2015,05,27,08,44,13.40
2015,05,27,08,45,13.40
2015,05,27,08,46,13.50
2015,05,27,08,47,13.50
2015,05,27,08,48,13.50
2015,05,27,08,49,13.50
2015,05,27,08,50,13.50
2015,05,27,08,51,13.60
2015,05,27,08,52,13.60
2015,05,27,08,53,13.60
2015,05,27,08,54,13.60
2015,05,27,08,55,13.60
2015,05,27,08,56,13.70
2015,05,27,08,57,13.70
2015,05,27,08,58,13.70
2015,05,27,08,59,13.70
2015,05,27,09,00,13.70
2015,05,27,09,01,13.80
2015,05,27,09,02,13.80
2015,05,27,09,03,13.80
2015,05,27,09,04,13.80
2015,05,27,09,05,13.80
2015,05,27,09,06,13.90
2015,05,27,09,07,13.90
2015,05,27,09,08,13.90
2015,05,27,09,09,13.90
2015,05,27,09,10,13.90
2015,05,27,09,11,14.00
2015,05,27,09,12,14.00
2015,05,27,09,13,14.00
2015,05,27,09,14,14.00
2015,05,27,09,15,14.10
2015,05,27,09,16,14.10
2015,05,27,09,17,14.10
2015,05,27,09,18,14.10
2015,05,27,09,19,14.10
2015,05,27,09,20,14.20
2015,05,27,09,21,14.20
2015,05,27,09,22,14.20
2015,05,27,09,23,14.20
2015,05,27,09,24,14.20
2015,05,27,09,25,14.20
2015,05,27,09,26,14.30
2015,05,27,09,27,14.30
2015,05,27,09,28,14.30
2015,05,27,09,29,14.30
2015,05,27,09,30,14.40
2015,05,27,09,31,14.40
2015,05,27,09,32,14.40
2015,05,27,09,33,14.40
2015,05,27,09,34,14.50
2015,05,27,09,35,14.50
2015,05,27,09,36,14.50
2015,05,27,09,37,14.60
2015,05,27,09,38,14.60
2015,05,27,09,39,14.60
2015,05,27,09,40,14.70
2015,05,27,09,41,14.70
2015,05,27,09,42,14.70
2015,05,27,09,43,14.80
2015,05,27,09,44,14.80
2015,05,27,09,45,14.80
2015,05,27,09,46,14.80
2015,05,27,09,47,14.80
2015,05,27,09,48,14.90
2015,05,27,09,49,14.90
2015,05,27,09,50,14.90
2015,05,27,09,51,15.00
2015,05,27,09,52,15.00
2015,05,27,09,53,15.10
2015,05,27,09,54,15.10
2015,05,27,09,55,15.10
2015,05,27,09,56,15.20
2015,05,27,09,57,15.20
2015,05,27,09,58,15.20
2015,05,27,09,59,15.20
2015,05,27,10,00,15.30
2015,05,27,10,01,15.30
2015,05,27,10,02,15.30
2015,05,27,10,03,15.40
2015,05,27,10,04,15.40
2015,05,27,10,05,15.40
2015,05,27,10,06,15.50
2015,05,27,10,07,15.50
2015,05,27,10,08,15.50
2015,05,27,10,09,15.60
2015,05,27,10,10,15.60
2015,05,27,10,11,15.60
2015,05,27,10,12,15.60
2015,05,27,10,13,15.70
2015,05,27,10,14,15.70
2015,05,27,10,15,15.70
2015,05,27,10,16,15.70
2015,05,27,10,17,15.70
2015,05,27,10,18,15.70
2015,05,27,10,19,15.70
2015,05,27,10,20,15.70
2015,05,27,10,21,15.70
2015,05,27,10,22,15.80
2015,05,27,10,23,15.80
2015,05,27,10,24,15.80
2015,05,27,10,25,15.80
2015,05,27,10,26,15.80
2015,05,27,10,27,15.90
2015,05,27,10,28,15.90
2015,05,27,10,29,15.90
2015,05,27,10,30,15.90
2015,05,27,10,31,16.00
2015,05,27,10,32,16.00
2015,05,27,10,33,16.00
2015,05,27,10,34,16.00
2015,05,27,10,35,16.00
2015,05,27,10,36,16.00
2015,05,27,10,37,16.00
2015,05,27,10,38,16.10
2015,05,27,10,39,16.10
2015,05,27,10,40,16.10
2015,05,27,10,41,16.10
2015,05,27,10,42,16.10
2015,05,27,10,43,16.10
2015,05,27,10,44,16.10
2015,05,27,10,45,16.20
2015,05,27,10,46,16.20
2015,05,27,10,47,16.20
2015,05,27,10,48,16.20
2015,05,27,10,49,16.20
2015,05,27,10,50,16.20
2015,05,27,10,51,16.20
2015,05,27,10,52,16.20
2015,05,27,10,53,16.20
2015,05,27,10,54,16.20
2015,05,27,10,55,16.20
2015,05,27,10,56,16.20
2015,05,27,10,57,16.20
2015,05,27,10,58,16.30
2015,05,27,10,59,16.30
2015,05,27,11,00,16.30
2015,05,27,11,01,16.30
2015,05,27,11,02,16.30
2015,05,27,11,03,16.40
2015,05,27,11,04,16.40
2015,05,27,11,05,16.50
2015,05,27,11,06,16.50
2015,05,27,11,07,16.60
2015,05,27,11,08,16.60
2015,05,27,11,09,16.60
2015,05,27,11,10,16.60
2015,05,27,11,11,16.60
2015,05,27,11,12,16.60
2015,05,27,11,13,16.60
2015,05,27,11,14,16.60
2015,05,27,11,15,16.60
2015,05,27,11,16,16.60
2015,05,27,11,17,16.60
2015,05,27,11,18,16.60
2015,05,27,11,19,16.60
2015,05,27,11,20,16.70
2015,05,27,11,21,16.70
2015,05,27,11,22,16.70
2015,05,27,11,23,16.70
2015,05,27,11,24,16.70
2015,05,27,11,25,16.70
2015,05,27,11,26,16.80
2015,05,27,11,27,16.80
2015,05,27,11,28,16.80
2015,05,27,11,29,16.80
2015,05,27,11,30,16.80
2015,05,27,11,31,16.80
2015,05,27,11,32,16.80
2015,05,27,11,33,16.80
2015,05,27,11,34,16.90
2015,05,27,11,35,16.90
2015,05,27,11,36,16.90
2015,05,27,11,37,16.90
2015,05,27,11,38,16.90
2015,05,27,11,39,16.90
2015,05,27,11,40,16.90
2015,05,27,11,41,16.90
2015,05,27,11,42,16.90
2015,05,27,11,43,16.90
2015,05,27,11,44,16.90
2015,05,27,11,45,16.90
2015,05,27,11,46,16.90
2015,05,27,11,47,16.80
2015,05,27,11,48,16.80
2015,05,27,11,49,16.80
2015,05,27,11,50,16.80
2015,05,27,11,51,16.90
2015,05,27,11,52,16.90
2015,05,27,11,53,16.90
2015,05,27,11,54,16.90
2015,05,27,11,55,16.90
2015,05,27,11,56,16.90
2015,05,27,11,57,16.90
2015,05,27,11,58,16.90
2015,05,27,11,59,16.90
2015,05,27,12,00,16.90
2015,05,27,12,01,16.90
2015,05,27,12,02,17.00
2015,05,27,12,03,17.00
2015,05,27,12,04,17.10
2015,05,27,12,05,17.20
2015,05,27,12,06,17.20
2015,05,27,12,07,17.20
2015,05,27,12,08,17.20
2015,05,27,12,09,17.20
2015,05,27,12,10,17.30
2015,05,27,12,11,17.30
2015,05,27,12,12,17.30
2015,05,27,12,13,17.30
2015,05,27,12,14,17.30
2015,05,27,12,15,17.40
2015,05,27,12,16,17.40
2015,05,27,12,17,17.40
2015,05,27,12,18,17.50
2015,05,27,12,19,17.50
2015,05,27,12,20,17.60
2015,05,27,12,21,17.70
2015,05,27,12,22,17.70
2015,05,27,12,23,17.80
2015,05,27,12,24,17.80
2015,05,27,12,25,17.90
2015,05,27,12,26,17.90
2015,05,27,12,27,17.90
2015,05,27,12,28,18.00
2015,05,27,12,29,18.00
2015,05,27,12,30,18.10
2015,05,27,12,31,18.10
2015,05,27,12,32,18.20
2015,05,27,12,33,18.20
2015,05,27,12,34,18.20
2015,05,27,12,35,18.10
2015,05,27,12,36,18.10
2015,05,27,12,37,18.10
2015,05,27,12,38,18.20
2015,05,27,12,39,18.20
2015,05,27,12,40,18.20
2015,05,27,12,41,18.20
2015,05,27,12,42,18.20
2015,05,27,12,43,18.30
2015,05,27,12,44,18.30
2015,05,27,12,45,18.30
2015,05,27,12,46,18.30
2015,05,27,12,47,18.40
2015,05,27,12,48,18.40
2015,05,27,12,49,18.50
2015,05,27,12,50,18.50
2015,05,27,12,51,18.60
2015,05,27,12,52,18.60
2015,05,27,12,53,18.60
2015,05,27,12,54,18.70
2015,05,27,12,55,18.70
2015,05,27,12,56,18.70
2015,05,27,12,57,18.70
2015,05,27,12,58,18.80
2015,05,27,12,59,18.90
2015,05,27,13,00,19.00
2015,05,27,13,01,19.10
2015,05,27,13,02,19.10
2015,05,27,13,03,19.20
2015,05,27,13,04,19.20
2015,05,27,13,05,19.20
2015,05,27,13,06,19.20
2015,05,27,13,07,19.20
2015,05,27,13,08,19.20
2015,05,27,13,09,19.20
2015,05,27,13,10,19.20
2015,05,27,13,11,19.20
2015,05,27,13,12,19.30
2015,05,27,13,13,19.30
2015,05,27,13,14,19.30
2015,05,27,13,15,19.30
2015,05,27,13,16,19.40
2015,05,27,13,17,19.40
2015,05,27,13,18,19.40
2015,05,27,13,19,19.40
2015,05,27,13,20,19.30
2015,05,27,13,21,19.30
2015,05,27,13,22,19.20
2015,05,27,13,23,19.10
2015,05,27,13,24,19.10
2015,05,27,13,25,19.10
2015,05,27,13,26,19.20
2015,05,27,13,27,19.20
2015,05,27,13,28,19.20
2015,05,27,13,29,19.30
2015,05,27,13,30,19.30
2015,05,27,13,31,19.30
2015,05,27,13,32,19.40
2015,05,27,13,33,19.40
2015,05,27,13,34,19.40
2015,05,27,13,35,19.40
2015,05,27,13,36,19.50
2015,05,27,13,37,19.50
2015,05,27,13,38,19.60
2015,05,27,13,39,19.60
2015,05,27,13,40,19.60
2015,05,27,13,41,19.50
2015,05,27,13,42,19.50
2015,05,27,13,43,19.60
2015,05,27,13,44,19.60
2015,05,27,13,45,19.60
2015,05,27,13,46,19.70
2015,05,27,13,47,19.70
2015,05,27,13,48,19.80
2015,05,27,13,49,19.80
2015,05,27,13,50,19.80
2015,05,27,13,51,19.80
2015,05,27,13,52,19.80
2015,05,27,13,53,19.70
2015,05,27,13,54,19.70
2015,05,27,13,55,19.70
2015,05,27,13,56,19.80
2015,05,27,13,57,19.80
2015,05,27,13,58,19.90
2015,05,27,13,59,19.90
2015,05,27,14,00,19.90
2015,05,27,14,01,19.90
2015,05,27,14,02,19.90
2015,05,27,14,03,19.90
2015,05,27,14,04,19.90
2015,05,27,14,05,19.90
2015,05,27,14,06,20.00
2015,05,27,14,07,20.10
2015,05,27,14,08,20.20
2015,05,27,14,09,20.30
2015,05,27,14,10,20.40
2015,05,27,14,11,20.40
2015,05,27,14,12,20.50
2015,05,27,14,13,20.60
2015,05,27,14,14,20.60
2015,05,27,14,15,20.50
2015,05,27,14,16,20.50
2015,05,27,14,17,20.40
2015,05,27,14,18,20.40
2015,05,27,14,19,20.40
2015,05,27,14,20,20.40
2015,05,27,14,21,20.40
2015,05,27,14,22,20.50
2015,05,27,14,23,20.50
2015,05,27,14,24,20.50
2015,05,27,14,25,20.50
2015,05,27,14,26,20.60
2015,05,27,14,27,20.60
2015,05,27,14,28,20.50
2015,05,27,14,29,20.40
2015,05,27,14,30,20.40
2015,05,27,14,31,20.50
2015,05,27,14,32,20.50
2015,05,27,14,33,20.60
2015,05,27,14,34,20.70
2015,05,27,14,35,20.80
2015,05,27,14,36,20.80
2015,05,27,14,37,20.80
2015,05,27,14,38,20.80
2015,05,27,14,39,20.80
2015,05,27,14,40,20.70
2015,05,27,14,41,20.70
2015,05,27,14,42,20.70
2015,05,27,14,43,20.70
2015,05,27,14,44,20.60
2015,05,27,14,45,20.60
2015,05,27,14,46,20.60
2015,05,27,14,47,20.60
2015,05,27,14,48,20.50
2015,05,27,14,49,20.50
2015,05,27,14,50,20.50
2015,05,27,14,51,20.60
2015,05,27,14,52,20.50
2015,05,27,14,53,20.50
2015,05,27,14,54,20.40
2015,05,27,14,55,20.40
2015,05,27,14,56,20.40
2015,05,27,14,57,20.40
2015,05,27,14,58,20.40
2015,05,27,14,59,20.40
2015,05,27,15,00,20.50
2015,05,27,15,01,20.60
2015,05,27,15,02,20.70
2015,05,27,15,03,20.80
2015,05,27,15,04,21.00
2015,05,27,15,05,21.10
2015,05,27,15,06,21.20
2015,05,27,15,07,21.30
2015,05,27,15,08,21.40
2015,05,27,15,09,21.40
2015,05,27,15,10,21.40
2015,05,27,15,11,21.40
2015,05,27,15,12,21.30
2015,05,27,15,13,21.30
2015,05,27,15,14,21.40
2015,05,27,15,15,21.40
2015,05,27,15,16,21.40
2015,05,27,15,17,21.40
2015,05,27,15,18,21.40
2015,05,27,15,19,21.40
2015,05,27,15,20,21.40
2015,05,27,15,21,21.40
2015,05,27,15,22,21.50
2015,05,27,15,23,21.50
2015,05,27,15,24,21.60
2015,05,27,15,25,21.70
2015,05,27,15,26,21.80
2015,05,27,15,27,21.80
2015,05,27,15,28,21.90
2015,05,27,15,29,21.90
2015,05,27,15,30,21.90
2015,05,27,15,31,21.90
2015,05,27,15,32,21.90
2015,05,27,15,33,21.90
2015,05,27,15,34,21.90
2015,05,27,15,35,21.90
2015,05,27,15,36,21.90
2015,05,27,15,37,22.00
2015,05,27,15,38,22.00
2015,05,27,15,39,22.00
2015,05,27,15,40,21.90
2015,05,27,15,41,21.80
2015,05,27,15,42,21.80
2015,05,27,15,43,21.80
2015,05,27,15,44,21.80
2015,05,27,15,45,21.80
2015,05,27,15,46,21.70
2015,05,27,15,47,21.70
2015,05,27,15,48,21.60
2015,05,27,15,49,21.60
2015,05,27,15,50,21.60
2015,05,27,15,51,21.50
2015,05,27,15,52,21.50
2015,05,27,15,53,21.40
2015,05,27,15,54,21.40
2015,05,27,15,55,21.50
2015,05,27,15,56,21.50
2015,05,27,15,57,21.60
2015,05,27,15,58,21.60
2015,05,27,15,59,21.60
2015,05,27,16,00,21.60
2015,05,27,16,01,21.70
2015,05,27,16,02,21.70
2015,05,27,16,03,21.70
2015,05,27,16,04,21.70
2015,05,27,16,05,21.80
2015,05,27,16,06,21.90
2015,05,27,16,07,22.00
2015,05,27,16,08,22.10
2015,05,27,16,09,22.10
2015,05,27,16,10,22.20
2015,05,27,16,11,22.10
2015,05,27,16,12,22.10
2015,05,27,16,13,22.00
2015,05,27,16,14,22.00
2015,05,27,16,15,22.00
2015,05,27,16,16,22.10
2015,05,27,16,17,22.10
2015,05,27,16,18,22.10
2015,05,27,16,19,22.20
2015,05,27,16,20,22.30
2015,05,27,16,21,22.30
2015,05,27,16,22,22.30
2015,05,27,16,23,22.30
2015,05,27,16,24,22.40
2015,05,27,16,25,22.50
2015,05,27,16,26,22.60
2015,05,27,16,27,22.60
2015,05,27,16,28,22.70
2015,05,27,16,29,22.70
2015,05,27,16,30,22.80
2015,05,27,16,31,22.70
2015,05,27,16,32,22.60
2015,05,27,16,33,22.60
2015,05,27,16,34,22.50
2015,05,27,16,35,22.50
2015,05,27,16,36,22.50
2015,05,27,16,37,22.50
2015,05,27,16,38,22.60
2015,05,27,16,39,22.70
2015,05,27,16,40,22.80
2015,05,27,16,41,22.80
2015,05,27,16,42,22.70
2015,05,27,16,43,22.70
2015,05,27,16,44,22.70
2015,05,27,16,45,22.70
2015,05,27,16,46,22.70
2015,05,27,16,47,22.70
2015,05,27,16,48,22.70
2015,05,27,16,49,22.70
2015,05,27,16,50,22.80
2015,05,27,16,51,22.80
2015,05,27,16,52,22.80
2015,05,27,16,53,22.90
2015,05,27,16,54,22.90
2015,05,27,16,55,23.00
2015,05,27,16,56,23.10
2015,05,27,16,57,23.10
2015,05,27,16,58,23.00
2015,05,27,16,59,22.90
2015,05,27,17,00,22.90
2015,05,27,17,01,22.90
2015,05,27,17,02,22.90
2015,05,27,17,03,22.90
2015,05,27,17,04,22.90
2015,05,27,17,05,22.90
2015,05,27,17,06,22.90
2015,05,27,17,07,22.90
2015,05,27,17,08,22.90
2015,05,27,17,09,22.90
2015,05,27,17,10,22.90
2015,05,27,17,11,23.00
2015,05,27,17,12,23.00
2015,05,27,17,13,22.80
2015,05,27,17,14,22.70
2015,05,27,17,15,22.70
2015,05,27,17,16,22.70
2015,05,27,17,17,22.70
2015,05,27,17,18,22.70
2015,05,27,17,19,22.70
2015,05,27,17,20,22.70
2015,05,27,17,21,22.80
2015,05,27,17,22,22.70